Nowra Airport

Jump to: basic info | weather | frequencies | runways | comments

Related pages: nearby airports | nearby navaids | notams | map

Basic information (top)

Codes: NOA YSNW
Location: lon -34.948898, lat 150.537003, elev 400 ft / 122 m msl
Status: medium_airport

Weather (top)

Current conditions (rec'd 2014/11/01 12:00Z):

YSNW 011200Z AUTO 20008KT 9999 // NCD 14/12 Q1011

Airport forecast for Sydney Kingsford Smith International Airport 68nm (126km) NNE (rec'd 2014/10/30 21:36Z):

TAF YSSY 302034Z 3021/3124 29005KT CAVOK 
     FM302300 14008KT CAVOK 
     FM310200 04015KT CAVOK 
     FM311200 35010KT CAVOK 
     FM312200 34018KT CAVOK

Frequencies (top)

Verify before use: may be inaccurate or out of date.

APP: 123.5 MHz (APP)
ATIS: 28.04 MHz (ATIS)
CLD: 128.35 MHz (CLNC DEL)
CTAF: 118.85 MHz (CTAF)
FSS: 121.2 MHz (MELBOURNE CNTR)
GND: 135.85 MHz (GND)
TWR: 118.85 MHz (TWR)

Runways (top)

03/21: 6,713 x 148 ft (2,046 x 45 m) — paved — lighted

08/26: 6,870 x 148 ft (2,094 x 45 m) — paved — lighted — threshold 26 displaced 298 ft (91 m)

Latest comments (top)

No comments yet for Nowra Airport

More... (top)

See also NOTAMs and nearby airports and navaids, or visit the Nowra Airport page at the main OurAirports website..